• In Uzbekistan
  • List of Countries
  • For 7 days
  • Water Temperature
  • Satellite Maps
  • Weather Map
  • Weather Widgets
  • user-avatar
    Login

    Hourly Weather Sukhumi

    Today, 20 September, Wednesday

    Time Temperature Precipitation Wind Pressure Humidity
    00:00 +25°C° 0 mm 3 mps 753 mmHg 57%
    01:00 +25°C° 0 mm 3 mps 753 mmHg 54%
    02:00 +25°C° 0 mm 3 mps 752 mmHg 51%
    03:00 +24°C° 0 mm 3 mps 752 mmHg 46%
    04:00 +24°C° 0 mm 3 mps 752 mmHg 43%
    05:00 +24°C° 0 mm 3 mps 752 mmHg 40%
    06:00 +24°C° 0 mm 3 mps 752 mmHg 38%
    07:00 +27°C° 0 mm 3 mps 752 mmHg 36%
    08:00 +30°C° 0 mm 2 mps 752 mmHg 34%
    09:00 +34°C° 0 mm 2 mps 752 mmHg 33%
    10:00 +35°C° 0 mm 2 mps 752 mmHg 31%
    11:00 +36°C° 0 mm 2 mps 752 mmHg 29%
    12:00 +37°C° 0 mm 2 mps 752 mmHg 26%
    13:00 +37°C° 0 mm 2 mps 751 mmHg 28%
    14:00 +37°C° 0 mm 2 mps 751 mmHg 29%
    15:00 +35°C° 0 mm 1 mps 751 mmHg 31%
    16:00 +34°C° 0 mm 2 mps 751 mmHg 39%
    17:00 +31°C° 0 mm 2 mps 751 mmHg 46%
    18:00 +29°C° 0 mm 2 mps 751 mmHg 54%
    19:00 +28°C° 0 mm 2 mps 752 mmHg 54%
    20:00 +27°C° 0 mm 3 mps 752 mmHg 54%
    21:00 +26°C° 0 mm 3 mps 752 mmHg 55%
    22:00 +26°C° 0 mm 3 mps 752 mmHg 54%
    23:00 +26°C° 0 mm 3 mps 752 mmHg 53%

    Tomorrow, 21 September, Thursday

    Time Temperature Precipitation Wind Pressure Humidity
    00:00 +26°C° 0 mm 3 mps 752 mmHg 52%
    01:00 +25°C° 0 mm 3 mps 752 mmHg 50%
    02:00 +25°C° 0 mm 3 mps 752 mmHg 49%
    03:00 +25°C° 0 mm 3 mps 752 mmHg 48%
    04:00 +25°C° 0 mm 3 mps 752 mmHg 45%
    05:00 +25°C° 0 mm 3 mps 751 mmHg 43%
    06:00 +24°C° 0 mm 3 mps 751 mmHg 41%
    07:00 +27°C° 0 mm 2 mps 751 mmHg 38%
    08:00 +30°C° 0 mm 2 mps 751 mmHg 34%
    09:00 +33°C° 0 mm 1 mps 751 mmHg 31%
    10:00 +34°C° 0 mm 1 mps 751 mmHg 28%
    11:00 +35°C° 0 mm 1 mps 750 mmHg 26%
    12:00 +36°C° 0 mm 1 mps 750 mmHg 23%
    13:00 +36°C° 0 mm 1 mps 750 mmHg 24%
    14:00 +37°C° 0 mm 2 mps 750 mmHg 25%
    15:00 +37°C° 0 mm 2 mps 749 mmHg 26%
    16:00 +35°C° 0 mm 2 mps 749 mmHg 34%
    17:00 +31°C° 0 mm 2 mps 749 mmHg 41%
    18:00 +29°C° 0 mm 3 mps 749 mmHg 49%
    19:00 +28°C° 0 mm 2 mps 749 mmHg 48%
    20:00 +27°C° 0 mm 2 mps 749 mmHg 47%
    21:00 +27°C° 0 mm 2 mps 749 mmHg 46%
    22:00 +26°C° 0 mm 2 mps 749 mmHg 43%
    23:00 +26°C° 0 mm 2 mps 749 mmHg 40%

    Day after tomorrow, 22 September, Friday

    Time Temperature Precipitation Wind Pressure Humidity
    00:00 +26°C° 0 mm 3 mps 749 mmHg 36%
    01:00 +26°C° 0 mm 3 mps 749 mmHg 35%
    02:00 +26°C° 0 mm 3 mps 749 mmHg 34%
    03:00 +26°C° 0 mm 2 mps 749 mmHg 33%
    04:00 +26°C° 0 mm 2 mps 749 mmHg 35%
    05:00 +25°C° 0 mm 2 mps 749 mmHg 38%
    06:00 +25°C° 0 mm 2 mps 749 mmHg 40%
    07:00 +28°C° 0.1 mm 2 mps 749 mmHg 38%
    08:00 +30°C° 0.1 mm 2 mps 749 mmHg 37%
    09:00 +33°C° 0.1 mm 1 mps 749 mmHg 35%
    10:00 +34°C° 0 mm 1 mps 749 mmHg 34%
    11:00 +35°C° 0 mm 2 mps 749 mmHg 33%
    12:00 +36°C° 0 mm 2 mps 749 mmHg 32%
    13:00 +36°C° 0 mm 2 mps 749 mmHg 33%
    14:00 +35°C° 0 mm 2 mps 749 mmHg 35%
    15:00 +35°C° 0 mm 2 mps 749 mmHg 37%
    16:00 +32°C° 0.1 mm 2 mps 749 mmHg 46%
    17:00 +30°C° 0.1 mm 2 mps 750 mmHg 56%
    18:00 +27°C° 0.1 mm 1 mps 750 mmHg 65%
    19:00 +27°C° 0 mm 2 mps 750 mmHg 64%
    20:00 +26°C° 0 mm 2 mps 751 mmHg 63%
    21:00 +25°C° 0 mm 2 mps 752 mmHg 63%
    22:00 +25°C° 0 mm 2 mps 752 mmHg 63%
    23:00 +24°C° 0 mm 2 mps 752 mmHg 63%

    23 September, Saturday

    Time Temperature Precipitation Wind Pressure Humidity
    00:00 +24°C° 0 mm 2 mps 752 mmHg 64%
    01:00 +24°C° 0 mm 2 mps 752 mmHg 64%
    02:00 +23°C° 0 mm 2 mps 752 mmHg 64%
    03:00 +23°C° 0 mm 2 mps 753 mmHg 64%
    04:00 +23°C° 0.3 mm 2 mps 753 mmHg 65%
    05:00 +22°C° 0.3 mm 3 mps 753 mmHg 65%
    06:00 +22°C° 0.3 mm 3 mps 753 mmHg 65%
    07:00 +24°C° 1 mm 3 mps 753 mmHg 64%
    08:00 +26°C° 1 mm 3 mps 753 mmHg 62%
    09:00 +28°C° 1 mm 3 mps 753 mmHg 61%
    10:00 +28°C° 1 mm 3 mps 753 mmHg 61%
    11:00 +29°C° 1 mm 3 mps 754 mmHg 60%
    12:00 +29°C° 1 mm 3 mps 754 mmHg 60%
    13:00 +29°C° 0.6 mm 3 mps 754 mmHg 62%
    14:00 +29°C° 0.6 mm 3 mps 754 mmHg 64%
    15:00 +29°C° 0.6 mm 3 mps 755 mmHg 66%
    16:00 +27°C° 0.5 mm 3 mps 755 mmHg 73%
    17:00 +26°C° 0.5 mm 2 mps 756 mmHg 79%
    18:00 +24°C° 0.5 mm 2 mps 756 mmHg 86%
    19:00 +24°C° 0.2 mm 2 mps 756 mmHg 86%
    20:00 +23°C° 0.2 mm 2 mps 757 mmHg 87%
    21:00 +22°C° 0.2 mm 3 mps 757 mmHg 88%
    22:00 +21°C° 0.2 mm 3 mps 757 mmHg 87%
    23:00 +21°C° 0.2 mm 3 mps 757 mmHg 86%

    24 September, Sunday

    Time Temperature Precipitation Wind Pressure Humidity
    00:00 +21°C° 0.2 mm 3 mps 757 mmHg 85%
    01:00 +21°C° 0.1 mm 3 mps 757 mmHg 84%
    02:00 +20°C° 0.1 mm 2 mps 757 mmHg 82%
    03:00 +20°C° 0.1 mm 2 mps 757 mmHg 81%
    04:00 +20°C° 0.3 mm 2 mps 757 mmHg 79%
    05:00 +20°C° 0.3 mm 2 mps 757 mmHg 78%
    06:00 +20°C° 0.3 mm 2 mps 757 mmHg 76%
    07:00 +23°C° 0.1 mm 2 mps 757 mmHg 71%
    08:00 +25°C° 0.1 mm 2 mps 757 mmHg 65%
    09:00 +27°C° 0.1 mm 2 mps 757 mmHg 60%
    10:00 +28°C° 0 mm 2 mps 757 mmHg 57%
    11:00 +29°C° 0 mm 2 mps 757 mmHg 55%
    12:00 +30°C° 0 mm 2 mps 757 mmHg 52%
    13:00 +30°C° 0.1 mm 2 mps 756 mmHg 54%
    14:00 +30°C° 0.1 mm 2 mps 756 mmHg 56%
    15:00 +30°C° 0.1 mm 2 mps 756 mmHg 58%
    16:00 +28°C° 0 mm 2 mps 756 mmHg 66%
    17:00 +27°C° 0 mm 2 mps 756 mmHg 74%
    18:00 +25°C° 0 mm 2 mps 756 mmHg 81%
    19:00 +24°C° 0 mm 2 mps 756 mmHg 80%
    20:00 +24°C° 0 mm 2 mps 756 mmHg 78%
    21:00 +23°C° 0 mm 1 mps 757 mmHg 76%
    22:00 +23°C° 0 mm 1 mps 756 mmHg 72%
    23:00 +23°C° 0 mm 1 mps 756 mmHg 69%

    25 September, Monday

    Time Temperature Precipitation Wind Pressure Humidity
    00:00 +22°C° 0 mm 1 mps 756 mmHg 65%
    01:00 +22°C° 0 mm 1 mps 756 mmHg 60%
    02:00 +22°C° 0 mm 1 mps 756 mmHg 55%
    03:00 +22°C° 0 mm 1 mps 756 mmHg 49%
    04:00 +22°C° 0 mm 1 mps 756 mmHg 47%
    05:00 +22°C° 0 mm 1 mps 756 mmHg 45%
    06:00 +22°C° 0 mm 1 mps 756 mmHg 43%
    07:00 +25°C° 0 mm 1 mps 756 mmHg 41%
    08:00 +27°C° 0 mm 1 mps 756 mmHg 39%
    09:00 +30°C° 0 mm 1 mps 756 mmHg 38%
    10:00 +30°C° 0 mm 1 mps 756 mmHg 38%
    11:00 +31°C° 0 mm 1 mps 756 mmHg 38%
    12:00 +32°C° 0 mm 1 mps 756 mmHg 38%
    13:00 +32°C° 0.1 mm 2 mps 755 mmHg 40%
    14:00 +32°C° 0.1 mm 2 mps 755 mmHg 42%
    15:00 +31°C° 0.1 mm 2 mps 755 mmHg 45%
    16:00 +29°C° 0.1 mm 2 mps 755 mmHg 53%
    17:00 +27°C° 0.1 mm 2 mps 755 mmHg 61%
    18:00 +25°C° 0.1 mm 2 mps 756 mmHg 69%
    19:00 +25°C° 0 mm 2 mps 756 mmHg 67%
    20:00 +24°C° 0 mm 2 mps 756 mmHg 64%
    21:00 +24°C° 0 mm 2 mps 756 mmHg 62%
    22:00 +24°C° 0 mm 2 mps 756 mmHg 58%
    23:00 +23°C° 0 mm 2 mps 756 mmHg 53%
    Show more